Flag for Germany Weather past 2 weeks in Hanau, Hesse, Germany

Now
70 °F

Sunny.


Feels Like: 70 °F
Forecast: 59 / 73 °F
Wind: 7 mph from Northeast

Location: Frankfurt-M-Flughafen Airport

Current Time: May 4, 2015 at 8:11:11 PM

Latest Report: May 4, 2015 at 7:50 PM


Visibility: 10 mi

Pressure: 29.74 "Hg

Humidity: 53%

Dew point: 52 °F

Location of HanauLocation

Historic Weather in Hanau — Graph

°F

Hanau temperature yesterday

Maximum temperature yesterday: 63 °F (at 3:20 PM)
Minimum temperature yesterday: 50 °F (at 12:50 AM)
Average temperature yesterday: 57 °F

Past Weeks' High & Low Weather Summary

 TemperatureHumidityPressure
High75 °F (Apr 21, 4:50 PM)100% (Apr 23, 5:50 AM)30.42 "Hg (Apr 23, 5:50 AM)
Low32 °F (Apr 29, 4:20 AM)21% (Apr 20, 6:20 PM)29.56 "Hg (Apr 27, 3:50 AM)
Average54 °F67%29.96 "Hg
* Reported Apr 19 6:20 PM — May 4 6:50 PM, Hanau, Weather by CustomWeather, © 2015

Note: Actual official high and low records may vary slightly from our data, if they occured in-between our weather recording intervals... More about our weather records

Advertising

Hanau weather history for previous 24 hours

 ConditionsComfort  
Time TempWeatherWind HumidityBarometerVisibility
6:50 PM
Mon, May 4
72 °FPassing clouds.3 mph47%29.74 "HgN/A
6:20 PM72 °FPassing clouds.5 mph50%29.77 "HgN/A
5:50 PM72 °FSunny.7 mph47%29.77 "Hg10 mi
5:20 PM72 °FPassing clouds.6 mph44%29.80 "HgN/A
4:50 PM72 °FPassing clouds.7 mph44%29.80 "HgN/A
4:20 PM72 °FPassing clouds.10 mph44%29.80 "HgN/A
3:50 PM72 °FSunny.10 mph44%29.80 "Hg10 mi
3:20 PM72 °FPassing clouds.7 mph47%29.80 "HgN/A
2:50 PM72 °FPartly sunny.12 mph44%29.83 "HgN/A
2:20 PM70 °FPartly sunny.10 mph46%29.83 "HgN/A
1:50 PM68 °FBroken clouds.13 mph53%29.83 "HgN/A
1:20 PM68 °FScattered clouds.12 mph53%29.83 "HgN/A
12:50 PM70 °FScattered clouds.13 mph53%29.83 "HgN/A
12:20 PM66 °FScattered clouds.15 mph56%29.86 "HgN/A
11:50 AM64 °FScattered clouds.13 mph64%29.86 "HgN/A
11:20 AM66 °FScattered clouds.14 mph60%29.83 "HgN/A
10:50 AM64 °FScattered clouds.9 mph68%29.83 "HgN/A
10:20 AM63 °FPartly sunny.8 mph77%29.83 "HgN/A
9:50 AM61 °FPartly sunny.12 mph88%29.83 "HgN/A
9:20 AM61 °FScattered clouds.10 mph88%29.83 "HgN/A
8:50 AM59 °FScattered clouds.8 mph94%29.83 "HgN/A
8:20 AM57 °FPartly sunny.5 mph94%29.83 "HgN/A
7:50 AM57 °FBroken clouds.6 mph94%29.83 "HgN/A
7:20 AM55 °FPartly sunny.5 mph100%29.83 "HgN/A
6:50 AM55 °FFog.2 mph94%29.80 "HgN/A
6:20 AM54 °FSnow. Overcast.5 mph100%29.80 "HgN/A
5:50 AM54 °FFog.7 mph100%29.80 "HgN/A
5:20 AM55 °FFog.6 mph94%29.80 "HgN/A
4:50 AM55 °FPassing clouds.5 mph94%29.80 "HgN/A
4:20 AM57 °FPassing clouds.7 mph94%29.77 "HgN/A
3:50 AM57 °FPassing clouds.8 mph94%29.77 "HgN/A
3:20 AM57 °FFog.5 mph100%29.77 "HgN/A
2:50 AM59 °FPassing clouds.3 mph94%29.77 "HgN/A
2:20 AM59 °FPartly cloudy.6 mph94%29.77 "HgN/A
1:50 AM59 °FPassing clouds.5 mph100%29.74 "HgN/A
1:20 AM59 °FPassing clouds.7 mph100%29.74 "HgN/A
12:50 AM61 °FPassing clouds.3 mph94%29.74 "HgN/A
12:20 AM59 °FPartly cloudy.7 mph100%29.71 "HgN/A
11:50 PM
Sun, May 3
61 °FLight rain. Passing clouds.10 mph94%29.71 "HgN/A
11:20 PM61 °FLight rain. Passing clouds.9 mph94%29.71 "HgN/A
10:50 PM61 °FPartly cloudy.12 mph94%29.71 "HgN/A
10:20 PM61 °FPassing clouds.8 mph94%29.71 "HgN/A
9:50 PM61 °FPartly cloudy.9 mph94%29.68 "HgN/A
9:20 PM61 °FLight rain. Partly sunny.9 mph94%29.68 "HgN/A
8:50 PM61 °FLight rain. Partly sunny.7 mph94%29.68 "HgN/A
8:20 PM61 °FLight rain. Partly sunny.8 mph94%29.68 "HgN/A
Weather by CustomWeather, © 2015

See weather overviewHow to use our weather pages